{"data":{"norad_id":49022,"epoch":"2026-05-25T00:34:53.962752Z","epoch_age_seconds":82989,"freshness":"FRESH","line1":"1 49022U 21064E   26145.02423568 -.00000090  00000+0  24208-4 0  9997","line2":"2 49022  45.0011 331.0929 0007780 151.8941 208.2317 14.08550619250962","mean_motion":14.08550619,"eccentricity":0.000778,"inclination_deg":45.0011,"raan_deg":331.0929,"arg_perigee_deg":151.8941,"mean_anomaly_deg":208.2317,"bstar":2.4208e-5,"rev_number":25096,"period_min":102.23274766102,"perigee_km":858.70108860347,"apogee_km":869.97037617507,"semimajor_km":7242.4727323893,"source":"CELESTRAK","updated_at":"2026-05-25T13:37:57.014139Z"}}